BVX118A EGCC-EDDF

Flight info

Callsign BVX118A
Flight time 1h 21m
Altitude 35000
Route SONEX L975 DESIG L603 DOLAS DCT NAVPI DCT NOLRU DCT DIXAT T149 LIPMI T911 TANJO
Aircraft B722/M-SDFGHRWY/C

Departure

Time 2026-05-04 19:06
Airport Manchester Airport (EGCC)

Arrival

Time 2026-05-04 20:28
Airport Frankfurt Main Airport (EDDF)
Time Latitude Longitude Altitude Speed Heading
2026-05-04 18:29 53.35933 -2.27540 236 ft 0 kts 95°
2026-05-04 18:45 53.35933 -2.27541 236 ft 0 kts 95°
2026-05-04 18:51 53.35934 -2.27547 236 ft 2 kts 95°
2026-05-04 18:51 53.35935 -2.27570 236 ft 2 kts 96°
2026-05-04 18:52 53.35937 -2.27593 236 ft 2 kts 98°
2026-05-04 18:52 53.35940 -2.27614 236 ft 2 kts 112°
2026-05-04 18:52 53.35947 -2.27628 236 ft 2 kts 153°
2026-05-04 18:52 53.35956 -2.27632 236 ft 1 kts 174°
2026-05-04 18:53 53.35962 -2.27632 238 ft 1 kts 180°
2026-05-04 18:53 53.35967 -2.27632 238 ft 1 kts 183°
2026-05-04 18:53 53.35971 -2.27631 239 ft 0 kts 184°
2026-05-04 18:59 53.35967 -2.27632 238 ft 4 kts 185°
2026-05-04 19:00 53.35910 -2.27641 236 ft 12 kts 185°
2026-05-04 19:00 53.35811 -2.27658 236 ft 16 kts 186°
2026-05-04 19:00 53.35712 -2.27630 236 ft 15 kts 158°
2026-05-04 19:00 53.35619 -2.27523 236 ft 18 kts 141°
2026-05-04 19:01 53.35577 -2.27466 236 ft 0 kts 141°
2026-05-04 19:01 53.35570 -2.27455 237 ft 4 kts 141°
2026-05-04 19:02 53.35519 -2.27387 239 ft 14 kts 141°
2026-05-04 19:02 53.35430 -2.27267 241 ft 21 kts 141°
2026-05-04 19:02 53.35304 -2.27192 236 ft 17 kts 194°
2026-05-04 19:02 53.35181 -2.27239 236 ft 17 kts 193°
2026-05-04 19:03 53.35163 -2.27246 236 ft 0 kts 192°
2026-05-04 19:03 53.35152 -2.27250 236 ft 6 kts 192°
2026-05-04 19:03 53.35112 -2.27264 236 ft 12 kts 192°
2026-05-04 19:03 53.35008 -2.27325 236 ft 18 kts 222°
2026-05-04 19:04 53.34930 -2.27480 236 ft 0 kts 230°
2026-05-04 19:04 53.34930 -2.27481 236 ft 0 kts 230°
2026-05-04 19:04 53.34928 -2.27485 236 ft 2 kts 234°
2026-05-04 19:04 53.34904 -2.27538 236 ft 9 kts 231°
2026-05-04 19:05 53.34897 -2.27554 237 ft 0 kts 231°
2026-05-04 19:05 53.34896 -2.27555 237 ft 2 kts 231°
2026-05-04 19:05 53.34834 -2.27685 233 ft 33 kts 231°
2026-05-04 19:05 53.34547 -2.28277 235 ft 98 kts 230°
2026-05-04 19:06 53.34020 -2.29399 272 ft 144 kts 234°
2026-05-04 19:06 53.33335 -2.30796 639 ft 161 kts 234°
2026-05-04 19:06 53.32605 -2.32334 1099 ft 178 kts 234°
2026-05-04 19:06 53.31867 -2.34090 1568 ft 197 kts 249°
2026-05-04 19:07 53.31656 -2.36512 2069 ft 227 kts 278°
2026-05-04 19:07 53.32288 -2.39025 2598 ft 243 kts 311°
2026-05-04 19:07 53.33684 -2.40675 3120 ft 247 kts 336°
2026-05-04 19:07 53.35307 -2.41530 3761 ft 250 kts 345°
2026-05-04 19:08 53.37005 -2.42239 4605 ft 252 kts 344°
2026-05-04 19:08 53.38719 -2.43115 5010 ft 262 kts 341°
2026-05-04 19:08 53.40433 -2.44078 5016 ft 258 kts 341°
2026-05-04 19:08 53.42143 -2.44996 5009 ft 257 kts 342°
2026-05-04 19:09 53.43884 -2.45658 4997 ft 259 kts 356°
2026-05-04 19:09 53.45649 -2.45279 5294 ft 260 kts 15°
2026-05-04 19:09 53.47269 -2.43884 5612 ft 261 kts 37°
2026-05-04 19:09 53.48506 -2.41614 6180 ft 267 kts 57°
2026-05-04 19:10 53.49195 -2.38688 6809 ft 273 kts 78°
2026-05-04 19:10 53.49203 -2.35497 7688 ft 276 kts 101°
2026-05-04 19:10 53.48771 -2.32332 8799 ft 280 kts 101°
2026-05-04 19:10 53.48541 -2.29108 9837 ft 286 kts 90°
2026-05-04 19:11 53.48736 -2.25699 10843 ft 290 kts 78°
2026-05-04 19:11 53.49203 -2.22455 11808 ft 294 kts 75°
2026-05-04 19:11 53.49668 -2.19072 12787 ft 298 kts 79°
2026-05-04 19:11 53.50006 -2.15608 13749 ft 302 kts 82°
2026-05-04 19:12 53.50329 -2.12099 14602 ft 306 kts 81°
2026-05-04 19:12 53.51097 -2.05019 16291 ft 313 kts 80°
2026-05-04 19:12 53.51479 -2.01352 17140 ft 317 kts 81°
2026-05-04 19:13 53.51852 -1.97679 17963 ft 321 kts 81°
2026-05-04 19:13 53.52238 -1.93952 18727 ft 324 kts 80°
2026-05-04 19:13 53.52536 -1.90182 19418 ft 327 kts 90°
2026-05-04 19:13 53.52258 -1.86399 20137 ft 328 kts 102°
2026-05-04 19:14 53.51659 -1.82643 20646 ft 338 kts 108°
2026-05-04 19:14 53.50891 -1.78842 21175 ft 347 kts 109°
2026-05-04 19:14 53.50160 -1.74926 21720 ft 355 kts 106°
2026-05-04 19:14 53.49494 -1.70891 22261 ft 363 kts 105°
2026-05-04 19:15 53.48793 -1.66778 22830 ft 370 kts 106°
2026-05-04 19:15 53.48039 -1.62633 23377 ft 377 kts 107°
2026-05-04 19:15 53.47265 -1.58378 23897 ft 382 kts 106°
2026-05-04 19:15 53.46505 -1.54073 24373 ft 385 kts 106°
2026-05-04 19:16 53.45741 -1.49752 24854 ft 387 kts 106°
2026-05-04 19:16 53.44957 -1.45412 25340 ft 389 kts 106°
2026-05-04 19:16 53.44171 -1.41075 25962 ft 388 kts 106°
2026-05-04 19:16 53.43386 -1.36713 26407 ft 393 kts 106°
2026-05-04 19:17 53.42592 -1.32311 26956 ft 394 kts 106°
2026-05-04 19:17 53.41791 -1.27895 27484 ft 397 kts 106°
2026-05-04 19:17 53.40996 -1.23522 27976 ft 399 kts 106°
2026-05-04 19:17 53.40190 -1.19076 28477 ft 402 kts 106°
2026-05-04 19:18 53.39372 -1.14574 28973 ft 404 kts 106°
2026-05-04 19:18 53.38539 -1.10021 29452 ft 406 kts 106°
2026-05-04 19:18 53.37713 -1.05520 29909 ft 408 kts 106°
2026-05-04 19:18 53.36864 -1.00890 30325 ft 411 kts 106°
2026-05-04 19:19 53.36033 -0.96369 30688 ft 413 kts 106°
2026-05-04 19:19 53.35182 -0.91762 31123 ft 413 kts 106°
2026-05-04 19:19 53.34337 -0.87196 31625 ft 411 kts 106°
2026-05-04 19:19 53.33477 -0.82558 32139 ft 409 kts 106°
2026-05-04 19:20 53.32635 -0.78027 32656 ft 407 kts 106°
2026-05-04 19:20 53.31809 -0.73591 33173 ft 404 kts 106°
2026-05-04 19:20 53.30973 -0.69119 33708 ft 401 kts 106°
2026-05-04 19:20 53.30144 -0.64691 34209 ft 397 kts 107°
2026-05-04 19:21 53.29322 -0.60321 34666 ft 393 kts 107°
2026-05-04 19:21 53.28502 -0.55972 35060 ft 391 kts 107°
2026-05-04 19:21 53.27680 -0.51615 35059 ft 400 kts 107°
2026-05-04 19:22 53.25958 -0.42525 35051 ft 417 kts 107°
2026-05-04 19:22 53.24171 -0.33100 35059 ft 433 kts 107°
2026-05-04 19:23 53.22305 -0.23338 35058 ft 449 kts 108°
2026-05-04 19:23 53.20360 -0.13242 35059 ft 462 kts 108°
2026-05-04 19:24 53.18395 -0.03077 35062 ft 461 kts 108°
2026-05-04 19:24 53.16410 0.07134 35044 ft 462 kts 108°
2026-05-04 19:25 53.14422 0.17314 35048 ft 463 kts 108°
2026-05-04 19:25 53.12428 0.27467 35056 ft 464 kts 108°
2026-05-04 19:26 53.10410 0.37692 35050 ft 466 kts 109°
2026-05-04 19:26 53.08366 0.47990 35049 ft 466 kts 109°
2026-05-04 19:27 53.06339 0.58150 35056 ft 467 kts 109°
2026-05-04 19:27 53.04282 0.68410 35062 ft 467 kts 109°
2026-05-04 19:28 53.02211 0.78679 35054 ft 467 kts 109°
2026-05-04 19:28 53.00137 0.88919 35062 ft 468 kts 109°
2026-05-04 19:29 52.98062 0.99098 35058 ft 469 kts 110°
2026-05-04 19:29 52.95817 1.09265 35058 ft 469 kts 112°
2026-05-04 19:30 52.93489 1.19391 35048 ft 470 kts 111°
2026-05-04 19:30 52.91214 1.29554 35046 ft 471 kts 112°
2026-05-04 19:31 52.88874 1.39691 35058 ft 471 kts 111°
2026-05-04 19:31 52.86563 1.49853 35047 ft 472 kts 112°
2026-05-04 19:32 52.84213 1.59996 35052 ft 472 kts 112°
2026-05-04 19:32 52.81868 1.70160 35037 ft 473 kts 112°
2026-05-04 19:33 52.79503 1.80307 35050 ft 473 kts 112°
2026-05-04 19:33 52.77132 1.90463 35046 ft 473 kts 112°
2026-05-04 19:34 52.74750 2.00599 35036 ft 473 kts 113°
2026-05-04 19:34 52.72376 2.10668 35039 ft 473 kts 113°
2026-05-04 19:35 52.69979 2.20776 35031 ft 473 kts 113°
2026-05-04 19:35 52.67569 2.30896 35033 ft 473 kts 113°
2026-05-04 19:36 52.65157 2.40975 35031 ft 473 kts 114°
2026-05-04 19:36 52.62733 2.51062 35026 ft 473 kts 114°
2026-05-04 19:37 52.60306 2.61112 35031 ft 473 kts 114°
2026-05-04 19:37 52.57870 2.71151 35028 ft 473 kts 114°
2026-05-04 19:38 52.55422 2.81193 35034 ft 472 kts 114°
2026-05-04 19:38 52.52804 2.90989 35030 ft 471 kts 119°
2026-05-04 19:39 52.49859 3.00614 35029 ft 471 kts 117°
2026-05-04 19:39 52.47111 3.10402 35022 ft 471 kts 118°
2026-05-04 19:40 52.44226 3.20020 35018 ft 471 kts 118°
2026-05-04 19:40 52.41412 3.29741 35017 ft 471 kts 118°
2026-05-04 19:41 52.38547 3.39361 35017 ft 470 kts 119°
2026-05-04 19:41 52.35706 3.48999 35014 ft 470 kts 119°
2026-05-04 19:42 52.32845 3.58588 35010 ft 470 kts 119°
2026-05-04 19:42 52.29976 3.68203 35008 ft 470 kts 119°
2026-05-04 19:43 52.27094 3.77812 35004 ft 469 kts 119°
2026-05-04 19:43 52.24219 3.87359 35006 ft 469 kts 119°
2026-05-04 19:44 52.21339 3.96888 35009 ft 469 kts 119°
2026-05-04 19:44 52.18444 4.06425 34997 ft 468 kts 120°
2026-05-04 19:45 52.15561 4.15889 34987 ft 467 kts 120°
2026-05-04 19:45 52.13162 4.23732 34986 ft 467 kts 120°
2026-05-04 19:46 52.10246 4.33235 34984 ft 466 kts 120°
2026-05-04 19:46 52.07337 4.42675 34985 ft 466 kts 120°
2026-05-04 19:47 52.04423 4.52100 34986 ft 466 kts 120°
2026-05-04 19:47 52.01607 4.61595 34978 ft 467 kts 117°
2026-05-04 19:48 51.99026 4.71197 34979 ft 467 kts 118°
2026-05-04 19:48 51.96234 4.80760 34974 ft 466 kts 119°
2026-05-04 19:49 51.93514 4.90309 34972 ft 467 kts 118°
2026-05-04 19:49 51.90817 4.99894 34968 ft 466 kts 119°
2026-05-04 19:50 51.88086 5.09408 34980 ft 466 kts 118°
2026-05-04 19:50 51.85373 5.18946 34973 ft 466 kts 119°
2026-05-04 19:51 51.82646 5.28401 34970 ft 466 kts 119°
2026-05-04 19:51 51.79917 5.37891 34964 ft 466 kts 119°
2026-05-04 19:52 51.77162 5.47388 34956 ft 466 kts 119°
2026-05-04 19:52 51.74104 5.56566 34960 ft 462 kts 127°
2026-05-04 19:53 51.70495 5.65139 34956 ft 462 kts 127°
2026-05-04 19:53 51.67266 5.74118 34955 ft 463 kts 125°
2026-05-04 19:54 51.63827 5.82878 34959 ft 462 kts 127°
2026-05-04 19:54 51.60490 5.91720 34957 ft 463 kts 126°
2026-05-04 19:55 51.57098 6.00506 34960 ft 462 kts 127°
2026-05-04 19:55 51.53708 6.09315 34954 ft 463 kts 126°
2026-05-04 19:56 51.50308 6.18114 34905 ft 465 kts 127°
2026-05-04 19:56 51.48592 6.22514 34454 ft 463 kts 127°
2026-05-04 19:56 51.46911 6.26867 33873 ft 456 kts 128°
2026-05-04 19:56 51.45244 6.31172 33211 ft 450 kts 128°
2026-05-04 19:57 51.43591 6.35402 32577 ft 445 kts 128°
2026-05-04 19:57 51.41957 6.39573 31973 ft 441 kts 128°
2026-05-04 19:57 51.40335 6.43728 31376 ft 437 kts 128°
2026-05-04 19:57 51.38729 6.47843 30782 ft 433 kts 128°
2026-05-04 19:58 51.37129 6.51919 30186 ft 428 kts 128°
2026-05-04 19:58 51.35555 6.55919 29541 ft 424 kts 128°
2026-05-04 19:58 51.33987 6.59904 28953 ft 419 kts 128°
2026-05-04 19:58 51.32470 6.63758 28389 ft 416 kts 128°
2026-05-04 19:59 51.30903 6.67730 27803 ft 412 kts 128°
2026-05-04 19:59 51.29382 6.71577 27235 ft 409 kts 127°
2026-05-04 19:59 51.27873 6.75388 26671 ft 405 kts 127°
2026-05-04 19:59 51.26387 6.79141 26109 ft 402 kts 127°
2026-05-04 20:00 51.24886 6.82919 25170 ft 404 kts 126°
2026-05-04 20:00 51.23376 6.86713 24221 ft 404 kts 126°
2026-05-04 20:00 51.21877 6.90484 23621 ft 395 kts 125°
2026-05-04 20:00 51.20450 6.94079 24041 ft 383 kts 126°
2026-05-04 20:01 51.19003 6.97690 24511 ft 389 kts 126°
2026-05-04 20:01 51.17530 7.01359 24990 ft 394 kts 126°
2026-05-04 20:01 51.16053 7.05057 25481 ft 397 kts 127°
2026-05-04 20:01 51.14566 7.08777 25958 ft 400 kts 127°
2026-05-04 20:02 51.13049 7.12547 25994 ft 404 kts 127°
2026-05-04 20:02 51.11540 7.16304 25986 ft 402 kts 127°
2026-05-04 20:02 51.10038 7.20039 25986 ft 401 kts 127°
2026-05-04 20:02 51.08524 7.23791 25980 ft 402 kts 127°
2026-05-04 20:03 51.07027 7.27493 25998 ft 402 kts 127°
2026-05-04 20:03 51.05363 7.31020 25994 ft 396 kts 138°
2026-05-04 20:03 51.03272 7.33834 26000 ft 390 kts 150°
2026-05-04 20:03 51.00961 7.36063 25799 ft 391 kts 155°
2026-05-04 20:04 50.98541 7.37970 25230 ft 385 kts 159°
2026-05-04 20:04 50.96113 7.39766 24686 ft 384 kts 157°
2026-05-04 20:04 50.93744 7.41721 24141 ft 384 kts 155°
2026-05-04 20:04 50.91411 7.43744 23450 ft 384 kts 155°
2026-05-04 20:05 50.89059 7.45678 23389 ft 373 kts 156°
2026-05-04 20:05 50.86722 7.47535 23864 ft 378 kts 156°
2026-05-04 20:05 50.84342 7.49463 23991 ft 388 kts 156°
2026-05-04 20:05 50.82318 7.51145 23996 ft 384 kts 155°
2026-05-04 20:06 50.79962 7.53089 23998 ft 383 kts 156°
2026-05-04 20:06 50.77589 7.55007 24006 ft 383 kts 156°
2026-05-04 20:06 50.75201 7.56934 23408 ft 385 kts 156°
2026-05-04 20:06 50.72835 7.58866 22672 ft 378 kts 155°
2026-05-04 20:07 50.70526 7.60752 21955 ft 371 kts 155°
2026-05-04 20:07 50.68250 7.62593 21251 ft 365 kts 156°
2026-05-04 20:07 50.66015 7.64397 20568 ft 360 kts 155°
2026-05-04 20:07 50.63802 7.66189 19888 ft 355 kts 155°
2026-05-04 20:08 50.61618 7.67957 19246 ft 350 kts 155°
2026-05-04 20:08 50.59462 7.69697 18609 ft 347 kts 155°
2026-05-04 20:08 50.57339 7.71411 17927 ft 335 kts 155°
2026-05-04 20:08 50.55323 7.73037 17209 ft 322 kts 156°
2026-05-04 20:09 50.53355 7.74618 16508 ft 315 kts 156°
2026-05-04 20:09 50.51406 7.76183 15803 ft 310 kts 156°
2026-05-04 20:09 50.49498 7.77714 15133 ft 306 kts 156°
2026-05-04 20:09 50.47601 7.79226 14475 ft 303 kts 156°
2026-05-04 20:10 50.45733 7.80720 13836 ft 300 kts 156°
2026-05-04 20:10 50.43893 7.82205 13128 ft 297 kts 156°
2026-05-04 20:10 50.42061 7.83682 12418 ft 293 kts 156°
2026-05-04 20:10 50.40260 7.85128 11741 ft 290 kts 156°
2026-05-04 20:11 50.38470 7.86562 11064 ft 287 kts 156°
2026-05-04 20:11 50.36697 7.87983 10406 ft 284 kts 156°
2026-05-04 20:11 50.34946 7.89388 9997 ft 275 kts 156°
2026-05-04 20:11 50.33239 7.90754 9992 ft 277 kts 157°
2026-05-04 20:12 50.31513 7.92129 9993 ft 278 kts 157°
2026-05-04 20:12 50.29790 7.93500 9990 ft 278 kts 157°
2026-05-04 20:12 50.28175 7.95196 9957 ft 285 kts 140°
2026-05-04 20:12 50.27034 7.97756 10043 ft 293 kts 116°
2026-05-04 20:13 50.26522 8.00871 10010 ft 298 kts 104°
2026-05-04 20:13 50.26148 8.04007 9988 ft 298 kts 104°
2026-05-04 20:13 50.25769 8.07198 9961 ft 298 kts 104°
2026-05-04 20:13 50.25516 8.09337 9948 ft 297 kts 104°
2026-05-04 20:14 50.25121 8.12696 9926 ft 297 kts 104°
2026-05-04 20:14 50.24745 8.15895 9891 ft 297 kts 104°
2026-05-04 20:14 50.24384 8.18998 9866 ft 281 kts 104°
2026-05-04 20:14 50.24077 8.21986 9810 ft 280 kts 99°
2026-05-04 20:15 50.24003 8.25054 9535 ft 283 kts 94°
2026-05-04 20:15 50.23985 8.28099 9138 ft 281 kts 94°
2026-05-04 20:15 50.23968 8.31132 8970 ft 276 kts 94°
2026-05-04 20:15 50.23952 8.34136 8962 ft 278 kts 94°
2026-05-04 20:16 50.23935 8.37170 8968 ft 278 kts 94°
2026-05-04 20:16 50.23914 8.40183 8964 ft 277 kts 94°
2026-05-04 20:16 50.23890 8.43192 8964 ft 277 kts 94°
2026-05-04 20:16 50.23866 8.46198 8963 ft 277 kts 94°
2026-05-04 20:17 50.23839 8.49214 8985 ft 277 kts 94°
2026-05-04 20:17 50.23807 8.52224 8980 ft 277 kts 94°
2026-05-04 20:17 50.23776 8.55225 8979 ft 277 kts 94°
2026-05-04 20:17 50.23745 8.58215 8980 ft 277 kts 94°
2026-05-04 20:18 50.23713 8.61238 8979 ft 277 kts 94°
2026-05-04 20:18 50.23682 8.64230 8979 ft 276 kts 94°
2026-05-04 20:18 50.23650 8.67233 8976 ft 276 kts 94°
2026-05-04 20:18 50.23618 8.70229 8977 ft 276 kts 94°
2026-05-04 20:19 50.23586 8.73236 8904 ft 277 kts 94°
2026-05-04 20:19 50.23552 8.76250 8383 ft 277 kts 94°
2026-05-04 20:19 50.23507 8.79248 7876 ft 275 kts 94°
2026-05-04 20:19 50.23463 8.82192 7381 ft 270 kts 94°
2026-05-04 20:20 50.23334 8.85098 6873 ft 263 kts 105°
2026-05-04 20:20 50.22476 8.87509 6368 ft 253 kts 140°
2026-05-04 20:20 50.20928 8.88647 5867 ft 248 kts 175°
2026-05-04 20:20 50.19217 8.88527 5386 ft 246 kts 182°
2026-05-04 20:21 50.17533 8.88964 4899 ft 247 kts 163°
2026-05-04 20:21 50.15881 8.89674 4409 ft 248 kts 167°
2026-05-04 20:21 50.12590 8.90105 3975 ft 218 kts 187°
2026-05-04 20:22 50.11204 8.89551 3926 ft 196 kts 212°
2026-05-04 20:22 50.10477 8.87932 3722 ft 180 kts 263°
2026-05-04 20:22 50.10471 8.86203 3807 ft 142 kts 270°
2026-05-04 20:22 50.10289 8.84778 3823 ft 133 kts 244°
2026-05-04 20:23 50.09893 8.83413 3711 ft 139 kts 249°
2026-05-04 20:23 50.09690 8.82468 3591 ft 139 kts 252°
2026-05-04 20:23 50.09363 8.81053 3415 ft 139 kts 248°
2026-05-04 20:23 50.09017 8.79652 3221 ft 138 kts 251°
2026-05-04 20:24 50.08694 8.78241 3036 ft 138 kts 250°
2026-05-04 20:24 50.08348 8.76856 2845 ft 138 kts 251°
2026-05-04 20:24 50.08026 8.75440 2669 ft 138 kts 251°
2026-05-04 20:24 50.07678 8.74051 2481 ft 138 kts 250°
2026-05-04 20:25 50.07358 8.72649 2297 ft 137 kts 251°
2026-05-04 20:25 50.07015 8.71262 2111 ft 137 kts 249°
2026-05-04 20:25 50.06690 8.69870 1932 ft 136 kts 252°
2026-05-04 20:25 50.06358 8.68498 1752 ft 134 kts 250°
2026-05-04 20:26 50.06048 8.67202 1570 ft 134 kts 252°
2026-05-04 20:26 50.05730 8.65840 1395 ft 134 kts 250°
2026-05-04 20:26 50.05401 8.64515 1220 ft 133 kts 252°
2026-05-04 20:26 50.05091 8.63155 1038 ft 132 kts 251°
2026-05-04 20:27 50.04758 8.61839 920 ft 131 kts 250°
2026-05-04 20:27 50.04446 8.60556 748 ft 128 kts 250°
2026-05-04 20:27 50.04134 8.59248 493 ft 129 kts 251°
2026-05-04 20:27 50.03844 8.57977 376 ft 118 kts 250°
2026-05-04 20:28 50.03622 8.57042 365 ft 57 kts 250°
2026-05-04 20:28 50.03526 8.56649 368 ft 34 kts 249°
2026-05-04 20:28 50.03443 8.56297 368 ft 36 kts 250°
2026-05-04 20:28 50.03451 8.55932 372 ft 27 kts 280°
2026-05-04 20:29 50.03460 8.55852 367 ft 0 kts 279°
2026-05-04 20:31 50.03465 8.55800 371 ft 9 kts 279°
2026-05-04 20:31 50.03514 8.55711 368 ft 14 kts
2026-05-04 20:31 50.03581 8.55843 374 ft 19 kts 68°
2026-05-04 20:31 50.03634 8.56064 371 ft 24 kts 71°
2026-05-04 20:32 50.03697 8.56328 372 ft 28 kts 69°
2026-05-04 20:32 50.03769 8.56627 372 ft 28 kts 70°
2026-05-04 20:32 50.03838 8.56920 369 ft 29 kts 69°
2026-05-04 20:32 50.03913 8.57233 373 ft 32 kts 71°
2026-05-04 20:33 50.03995 8.57572 370 ft 35 kts 71°
2026-05-04 20:33 50.04082 8.57940 373 ft 38 kts 70°
2026-05-04 20:33 50.04177 8.58334 374 ft 40 kts 69°
2026-05-04 20:33 50.04237 8.58576 372 ft 0 kts 64°
2026-05-04 20:34 50.04238 8.58579 372 ft 0 kts 56°
2026-05-04 20:34 50.04255 8.58597 374 ft 9 kts 27°
2026-05-04 20:34 50.04308 8.58620 374 ft 0 kts
2026-05-04 20:34 50.04366 8.58632 372 ft 16 kts
2026-05-04 20:35 50.04508 8.58648 380 ft 21 kts 356°
2026-05-04 20:35 50.04600 8.58725 375 ft 17 kts 45°
2026-05-04 20:35 50.04647 8.58756 371 ft 0 kts
2026-05-04 20:35 50.04654 8.58758 371 ft 2 kts
2026-05-04 20:36 50.04655 8.58758 371 ft 0 kts
2026-05-04 20:37 50.04668 8.58760 371 ft 8 kts
2026-05-04 20:37 50.04759 8.58756 375 ft 16 kts 343°
2026-05-04 20:37 50.04881 8.58686 373 ft 19 kts 339°
2026-05-04 20:38 50.04965 8.58730 375 ft 12 kts 63°
2026-05-04 20:38 50.04948 8.58775 377 ft 6 kts 172°
2026-05-04 20:38 50.04900 8.58797 374 ft 0 kts 159°